Regional Weather Roundup
Issued by NWS

Home | Current Version | Previous Version | Graphics & Text | Print | Product List | Glossary On
Versions: 1 2 3 4 5 6 7 8 9 10 11 12 13 14 15 16 17 18 19 20 21 22 23 24 25 26 27 28 29 30 31 32 33 34 35 36 37 38 39 40 41 42 43 44 45 46 47 48 49 50
000
ASUS43 KLMK 280010
RWRKY
KENTUCKY REGIONAL WEATHER ROUNDUP
NATIONAL WEATHER SERVICE LOUISVILLE KY
700 PM EST SAT DEC 27 2014

NOTE "FAIR" INDICATES FEW OR NO CLOUDS BELOW 12,000 FEET
WITH NO SIGNIFICANT WEATHER AND/OR OBSTRUCTIONS TO VISIBILITY.

KYZ001>023-026-027-061>063-070>075-280100-
WESTERN AND SOUTH CENTRAL KENTUCKY

CITY           SKY/WX    TMP DP  RH WIND       PRES   REMARKS
PADUCAH        FOG       50  49  96 NW3       30.10R VSB 1
HENDERSON      CLOUDY    48  45  87 SW6       30.11R
OWENSBORO      CLOUDY    48  48 100 S6        30.10S
HOPKINSVILLE   CLOUDY    48  48 100 SE5       30.09F
BOWLING GREEN  CLOUDY    49  46  90 S6        30.14F
GLASGOW        HVY RAIN  48  48 100 CALM      30.14F
$$

KYZ024-025-028>034-038-045-046-053-280100-
NORTH CENTRAL KENTUCKY

CITY           SKY/WX    TMP DP  RH WIND       PRES   REMARKS
LOUISVILLE/SDF LGT RAIN  49  47  93 S8        30.10F
LOUISVILLE/LOU CLOUDY    48  47  96 SE6       30.11F FOG
FORT KNOX      LGT RAIN  47  46  96 S8        30.10F
$$

KYZ035>037-039>044-047>052-055>060-089>105-280100-
NORTHEAST KENTUCKY

CITY           SKY/WX    TMP DP  RH WIND       PRES   REMARKS
LEXINGTON      LGT RAIN  47  44  90 W7        30.14R
COVINGTON      LGT RAIN  48  44  86 S8        30.09F FOG
FRANKFORT      CLOUDY    47  45  93 SW7       30.12F
$$

KYZ054-064>069-076>088-106>120-280100-
SOUTHEAST KENTUCKY

CITY           SKY/WX    TMP DP  RH WIND       PRES   REMARKS
JACKSON        CLOUDY    57  26  30 VRB3      30.12S
LONDON         RAIN      51  38  60 SW12      30.16R
SOMERSET       DRIZZLE   48  43  81 S6G16     30.17R
MIDDLESBORO    DRIZZLE   53  35  50 SE5       30.18R
MONTICELLO     CLOUDY    50  46  85 S7        30.18R
$$




USA.gov is the U.S. government's official web portal to all federal, state and local government web resources and services.